Showing default

FLOCK 4G 25, 62646

Orbit data source: Space-Track

FLOCK 4G 25, 62646 is a payload satellite owned by Planet (US) in SSO that was launched on Tue, 14 Jan 2025 UTC via an FALCON 9 launch vehicle from the Air Force Western Test Range (AFWTR). Payload-class satellites include a variety of spacecraft equipped with specific instruments for various scientific and technological missions. These include communications satellites like Starlink; space stations such as the ISS; scientific satellites like the Hubble; Earth observation satellites from companies like Planet Labs, Umbra, and HawkEye 360; GPS; miniature CubeSats for education and research; and military/defense satellites.

Loading next visibility...
Identifier
62646, 2025-009AP
Orbit
SSO
Country
Flag of USUS
Related business
Manufacturer
Planet
Mission
Operational Commercial Imaging
Bus & Motor
CUBESAT 3U, Unknown motor
Mass
5.7 kg wet, 5.7 kg dry
Launch date (UTC)
2025-01-14 (1 year ago)
Launch vehicle
FALCON 9
Launch site
Air Force Western Test Range (AFWTR)
Object type
Payload
Rocket body
Debris
Shape & HBR
Box + 2 Pan, 1.0 m
Radar Cross Section
0.072 m², Medium (>0.1 m² and < 1m²)

Expand to show TLE details & history
Last TLE update: 7 hours ago

TLE from 7 hours ago
0 FLOCK 4G 25
1 62646U 25009AP  26136.19060793  .00006995  00000-0  25276-3 0  9997
2 62646  97.4021 218.4319 0003325  83.3929 276.7690 15.28774659 74039
Epoch: 2026-05-16T04:34Z
TLE epoch observation values (Epoch: 2026-05-16T04:34:28.525Z)
Latitude
0.00007°
Longitude
-84.09809°
Altitude
482.308 km
Speed
7.624 km/s
True Right ascension
14h 33m 43s
True Declination
0° 00' 00"
Sunlit
Object was in full shadow at epoch
Visualization orbit readout
Latitude
Unknown
Longitude
Unknown
Altitude
Unknown
Speed
Unknown
Apparent Right ascension
Unknown
Apparent Declination
Unknown
Sunlit
N/A
Visualization observer readout
Local Sidereal Time
20:23:52
Azimuth
Unknown
Elevation
Unknown
Doppler factor
Unknown
Orbital elements
Apogee altitude
478.707 km
Perigee altitude
474.149 km
Semi-major axis
6,854.565 km
Eccentricity
0.00033
Inclination
97.4021°
RAAN
218.4319°
Arg. of periapsis
83.3929°
True anomaly
276.73116°
Mean anomaly
276.769°
Eccentric anomaly
276.75008°
Mean motion
3.82449 °/min
Orbital period
94.13 mins
BSTAR
0.00025276
Loading maneuver chart data...
Computing Atmospheric mass density...
Loading historical data...
Loading historical data...
Loading historical data...
Loading historical data...
Loading historical data...
Loading historical data...
Loading historical data...

Documentation

Showing up to 5 results
|